Yatton Keynell, United Kingdom

11:01 PM BST on June 15, 2019 (GMT +0100)
Yatton Keynell

Weather History for 03740 - August, 2007

Change the Weather History Date:

Friday, August 10, 2007

  Actual Average Record
Temperature  
Mean Temperature 60 °F -  
Max Temperature 72 °F 67 °F - ()
Min Temperature 49 °F 52 °F - ()
Degree Days  
Heating Degree Days 4    
Growing Degree Days 10 (Base 50)    
Moisture  
Dew Point 49 °F    
Average Humidity 65    
Maximum Humidity 94    
Minimum Humidity 30    
Precipitation  
Precipitation 0.00 in 0.08 in - ()
Sea Level Pressure  
Sea Level Pressure 30.10 in    
Wind  
Wind Speed 4 mph ()    
Max Wind Speed 8 mph    
Max Gust Speed -    
Visibility 9.9 miles    
Events Fog    
T = Trace of Precipitation, MM = Missing Value Source: Averaged Metar Reports

Daily Weather History Graph

Daily Weather History Graph

Search for Another Location

Airport or City:

Astronomy

Aug. 10, 2007 Rise Set
Actual Time 5:44 AM BST 8:40 PM BST
Civil Twilight 5:06 AM BST 9:19 PM BST
Nautical Twilight 4:15 AM BST 10:09 PM BST
Astronomical Twilight 3:11 AM BST 11:11 PM BST
Moon 2:03 AM BST (8/10) 7:53 PM BST (8/10)
Length of Visible Light 16h 13m
Length of Day
14h 56m
Waning Crescent, 7% of the Moon is Illuminated
Aug 10
Waning Crescent
Aug 13
New
Aug 21
First Quarter
Aug 28
Full
Sep 4
Last Quarter

Hourly Weather History & Observations

Time (BST) Temp. Dew Point Humidity Pressure Visibility Wind Dir Wind Speed Gust Speed Precip Events Conditions
12:50 AM 54 °F 49 °F 79% 30.17 in 19 mi WNW 4.6 mph - -   Clear
12:50 AM 53.6 °F 50.0 °F 88% 30.15 in - WNW 4.6 mph - N/A   Clear
1:50 AM 55.4 °F 48.2 °F 77% 30.15 in - NNW 3.5 mph - N/A   Clear
2:50 AM 51.8 °F 48.2 °F 88% 30.15 in - WNW 5.8 mph - N/A   Clear
3:50 AM 51 °F 47 °F 80% 30.15 in 19 mi WNW 4.6 mph - -   Clear
3:50 AM 51.8 °F 46.4 °F 82% 30.12 in - WNW 4.6 mph - N/A   Clear
4:50 AM 50.0 °F 46.4 °F 87% 30.12 in - NW 3.5 mph - N/A   Clear
5:50 AM 50.0 °F 46.4 °F 87% 30.12 in 6.2 mi WSW 3.5 mph - N/A Fog Shallow Fog
6:50 AM 52 °F 46 °F 75% 30.14 in 25 mi West 5.8 mph - - Fog Patches of Fog
6:50 AM 51.8 °F 46.4 °F 82% 30.12 in 6.2 mi West 5.8 mph - N/A Fog Shallow Fog
7:50 AM 55.4 °F 46.4 °F 72% 30.12 in - WNW 3.5 mph - N/A   Clear
8:50 AM 59.0 °F 50.0 °F 72% 30.12 in - North 1.2 mph - N/A   Clear
9:50 AM 62 °F 49 °F 53% 30.14 in 25 mi North 3.5 mph - -   Clear
9:50 AM 62.6 °F 50.0 °F 63% 30.12 in - North 3.5 mph - N/A   Clear
10:50 AM 64.4 °F 44.6 °F 49% 30.12 in 6.2 mi NNW 3.5 mph - N/A   Mostly Cloudy
11:50 AM 68.0 °F 48.2 °F 49% 30.12 in 6.2 mi WSW 2.3 mph - N/A   Mostly Cloudy
12:50 PM 69 °F 49 °F 37% 30.11 in 31 mi SW 3.5 mph - -   Scattered Clouds
12:50 PM 68.0 °F 48.2 °F 49% 30.12 in 6.2 mi SW 3.5 mph - N/A   Mostly Cloudy
1:50 PM 69.8 °F 42.8 °F 38% 30.09 in - West 5.8 mph - N/A   Clear
2:50 PM 69.8 °F 46.4 °F 43% 30.09 in - West 4.6 mph - N/A   Clear
3:50 PM 72 °F 47 °F 30% 30.08 in 37 mi WSW 6.9 mph - -   Scattered Clouds
3:50 PM 71.6 °F 48.2 °F 43% 30.09 in - WSW 6.9 mph - N/A   Clear
4:50 PM 71.6 °F 42.8 °F 35% 30.06 in - West 6.9 mph - N/A   Clear
5:50 PM 69.8 °F 37.4 °F 31% 30.06 in - WNW 8.1 mph - N/A   Clear
6:50 PM 69 °F 50 °F 40% 30.07 in 37 mi WNW 8.1 mph - -   Scattered Clouds
6:50 PM 69.8 °F 50.0 °F 49% 30.06 in - WNW 8.1 mph - N/A   Clear
7:50 PM 64.4 °F 53.6 °F 68% 30.06 in - WNW 5.8 mph - N/A   Clear
8:50 PM 60.8 °F 53.6 °F 77% 30.06 in - WNW 6.9 mph - N/A   Clear
9:50 PM 59 °F 55 °F 81% 30.09 in 25 mi WNW 6.9 mph - -   Clear
9:50 PM 59.0 °F 55.4 °F 88% 30.06 in - WNW 6.9 mph - N/A   Clear
10:50 PM 59.0 °F 55.4 °F 88% 30.06 in - NW 5.8 mph - N/A   Clear
11:50 PM 57.2 °F 55.4 °F 94% 30.06 in - NNW 3.5 mph - N/A   Clear